Portada
METAR-TAF:

METAR-TAF

Aeroports :

Sedalia, Missouri, Estats Units d'Amèrica

latitud: 38-42-44N, longitud: 093-10-28W, altitud: 277 m

Observació

L'informe es va fer fa 1 hora i 2 minuts, a les 10:53 UTC
Vent 4 kt del Sud/Sud-Est
Temperatura 12°C
Humitat 88%
Pressió 1024 hPa
Visibilitat: 16.1 km
Cel clar

METAR: KDMO 301053Z AUTO 15004KT 10SM CLR 12/10 A3023 RMK AO2 SLP232 T01220100

Hora: 06:55 (11:55 UTC)


TAF: manca

Observacions i pronòstics meteorològics de més de 4000 aeroports (METAR i TAF).

Les estacions disponibles són els punts grocs i vermells al mapa.

Posi el ratolí al punt desitjat per veure el nom de l'estació.

Feu clic per veure les observacions i els pronòstics meteorològics.

Per canviar el mapa: feu clic els botons verds amb una creu de color negre per apropar; al botó verd amb un guió per allunyar la imatge; o en les fletxes verdes per a mapes adjacents.


METAR-TAF: